カタログに戻る

THOR ABLESTAR R/B

運用中LEO
NORAD 204·ROCKET BODY·🇺🇸 United States

打ち上げ Nov 15, 1961 から Cape Canaveral Space Force Station

Loading…

次のパス (今後24時間)

TLE

最新Source: Space-Track

元期: Sep 14, 2026, 20:20 UTC

1 00204U 61031C   26257.84737888  .00000065  00000-0  49393-4 0  9995
2 00204  32.4441 327.6743 0098810 274.6020  84.3322 13.65087289235286

AllMySatでTHOR ABLESTAR R/Bをリアルタイム追跡

Download on the App Store